Location: Nasgenstadt
(48.2786°N, 9.7553°E)
Time: 05:24:35
(UTC+02:00)

ELECTRON R/B - Visible Passes

Search period start: 21 May 2018 00:00
Search period end: 31 May 2018 00:00
Orbit: 285 x 480 km, 82.9° (Epoch: 20 May)

Date Brightness Start Highest point End Pass type
(mag) Time Alt. Az. Time Alt. Az. Time Alt. Az.
21 May 7.5 23:04:34 10° WNW 23:05:13 11° W 23:05:53 10° WSW visible
22 May 4.7 22:06:36 10° NNW 22:09:02 63° W 22:11:26 10° S visible
23 May 7.4 22:44:02 10° WNW 22:45:10 12° W 22:46:18 10° WSW visible
24 May 4.4 21:46:21 10° N 21:48:47 78° W 21:51:14 10° S visible
25 May 7.3 22:23:21 10° NW 22:24:48 14° W 22:26:15 10° SW visible
27 May 7.3 22:02:23 10° NW 22:04:07 17° W 22:05:51 10° SW visible
